sat.trackr.live / text

‹ back to catalog

STARLINK-31786

NORAD 59771 · 2024-091U

PAYLOAD ACTIVE UNKNOWN

§ Identity

Operator
Country
US
Launch date
2024-05-14
Launch site
AFWTR
Launch vehicle
Mass (kg)
RCS (m²)

Purposes: comms

External: N2YO · Heavens-Above · Gunter

§ Orbital elements

Epoch: 2026-09-21T05:52:08.953248Z

Period
93.85 min
Inclination
53.1613°
Eccentricity
0.0001191
Mean motion
15.34397865 rev/d
Perigee alt
461.9 km
Apogee alt
463.5 km
Semi-major
6,840.8 km
B*
1.5948e-5
RAAN
197.9190°
Arg perigee
86.9558°
Mean anomaly
273.1581°
Rev number
13,295

§ Raw data

STARLINK-317861 59771U 24091U   26264.24454807  .00000163  00000+0  15948-4 0  99992 59771  53.1613 197.9190 0001191  86.9558 273.1581 15.34397865132957

JSON: /api/v1/satellites/59771 · /tle

For live sub-satellite position, see the globe view (requires WebGL).

§ Visibility from observer

Set your observer location to see the next 7 days of passes ≥ 10°. The values pass through the URL so the page stays shareable.

No JS? Fill the form by hand. The geolocation button needs JavaScript.